Time,TemperatureF,DewpointF,PressureIn,WindDirection,WindDirectionDegrees,WindSpeedMPH,WindSpeedGustMPH,Humidity,HourlyPrecipIn,Conditions,Clouds,dailyrainin,SoftwareType,DateUTC
2013-04-30 00:04:00,63.0,52.2,29.35,SE,135,15.0,17.0,68,0.00,,,0.00,meteohub,2013-04-30 05:04:00,
2013-04-30 00:09:00,63.1,52.3,29.35,SE,135,15.0,17.0,68,0.00,,,0.00,meteohub,2013-04-30 05:09:00,
2013-04-30 00:14:00,63.3,52.5,29.34,SE,135,15.0,17.0,68,0.00,,,0.00,meteohub,2013-04-30 05:14:00,
2013-04-30 00:19:00,63.3,52.5,29.34,SE,135,17.0,17.0,68,0.00,,,0.00,meteohub,2013-04-30 05:19:00,
2013-04-30 00:24:00,63.3,52.5,29.34,SE,135,17.0,20.0,68,0.00,,,0.00,meteohub,2013-04-30 05:24:00,
2013-04-30 00:29:00,63.3,53.1,29.34,SE,135,16.0,20.0,69,0.00,,,0.00,meteohub,2013-04-30 05:29:00,
2013-04-30 00:34:00,63.1,52.9,29.33,SE,135,17.0,17.0,69,0.00,,,0.00,meteohub,2013-04-30 05:34:00,
2013-04-30 00:39:00,63.1,52.9,29.33,SE,135,20.0,20.0,69,0.00,,,0.00,meteohub,2013-04-30 05:39:00,
2013-04-30 00:44:00,63.3,53.4,29.32,SE,135,18.0,20.0,70,0.00,,,0.00,meteohub,2013-04-30 05:44:00,
2013-04-30 00:49:00,63.5,53.6,29.32,SSE,158,16.0,21.0,70,0.00,,,0.00,meteohub,2013-04-30 05:49:00,
2013-04-30 00:54:00,63.5,53.6,29.32,SE,135,19.0,21.0,70,0.00,,,0.00,meteohub,2013-04-30 05:54:00,
2013-04-30 00:59:00,63.5,53.6,29.32,SE,135,18.0,21.0,70,0.00,,,0.00,meteohub,2013-04-30 05:59:00,
2013-04-30 01:04:00,63.5,53.6,29.32,SE,135,15.0,21.0,70,0.00,,,0.00,meteohub,2013-04-30 06:04:00,
2013-04-30 01:09:00,63.3,53.4,29.32,SE,135,17.0,21.0,70,0.00,,,0.00,meteohub,2013-04-30 06:09:00,
2013-04-30 01:15:00,63.1,53.6,29.32,SE,135,14.0,20.0,71,0.00,,,0.00,meteohub,2013-04-30 06:15:00,
2013-04-30 01:20:00,62.8,53.2,29.31,SE,135,18.0,20.0,71,0.00,,,0.00,meteohub,2013-04-30 06:20:00,
2013-04-30 01:25:00,62.6,53.4,29.31,SE,135,16.0,19.0,72,0.00,,,0.00,meteohub,2013-04-30 06:25:00,
2013-04-30 01:30:00,62.6,53.4,29.31,SE,135,17.0,19.0,72,0.00,,,0.00,meteohub,2013-04-30 06:30:00,
2013-04-30 01:35:00,62.6,53.8,29.31,SE,135,18.0,18.0,73,0.00,,,0.00,meteohub,2013-04-30 06:35:00,
2013-04-30 01:40:00,62.8,54.0,29.31,SE,135,18.0,18.0,73,0.00,,,0.00,meteohub,2013-04-30 06:40:00,
2013-04-30 01:45:00,62.8,54.0,29.30,SE,135,17.0,20.0,73,0.00,,,0.00,meteohub,2013-04-30 06:45:00,
2013-04-30 01:50:00,62.8,54.0,29.30,SE,135,19.0,20.0,73,0.00,,,0.00,meteohub,2013-04-30 06:50:00,
2013-04-30 01:55:00,63.1,54.3,29.29,SE,135,20.0,20.0,73,0.00,,,0.00,meteohub,2013-04-30 06:55:00,
2013-04-30 02:00:00,63.1,54.3,29.29,SE,135,19.0,21.0,73,0.00,,,0.00,meteohub,2013-04-30 07:00:00,
2013-04-30 02:05:00,63.1,54.3,29.29,SE,135,23.0,23.0,73,0.00,,,0.00,meteohub,2013-04-30 07:05:00,
2013-04-30 02:10:00,63.1,54.3,29.29,SE,135,18.0,23.0,73,0.00,,,0.00,meteohub,2013-04-30 07:10:00,
2013-04-30 02:15:00,63.1,54.3,29.29,South,180,23.0,23.0,73,0.00,,,0.00,meteohub,2013-04-30 07:15:00,
2013-04-30 02:20:00,63.1,54.3,29.29,SSE,158,21.0,23.0,73,0.00,,,0.00,meteohub,2013-04-30 07:20:00,
2013-04-30 02:25:00,63.1,54.3,29.29,SE,135,20.0,23.0,73,0.00,,,0.00,meteohub,2013-04-30 07:25:00,
2013-04-30 02:30:00,63.1,54.3,29.29,SSE,158,21.0,23.0,73,0.00,,,0.00,meteohub,2013-04-30 07:30:00,
2013-04-30 02:35:00,63.0,54.1,29.29,SE,135,22.0,23.0,73,0.00,,,0.00,meteohub,2013-04-30 07:35:00,
2013-04-30 02:40:00,63.0,54.5,29.28,SE,135,24.0,24.0,74,0.00,,,0.00,meteohub,2013-04-30 07:40:00,
2013-04-30 02:46:00,63.1,54.7,29.28,SE,135,26.0,26.0,74,0.00,,,0.00,meteohub,2013-04-30 07:46:00,
2013-04-30 02:51:00,63.3,54.9,29.27,SE,135,23.0,26.0,74,0.00,,,0.00,meteohub,2013-04-30 07:51:00,
2013-04-30 02:56:00,63.3,54.9,29.28,South,180,23.0,26.0,74,0.00,,,0.00,meteohub,2013-04-30 07:56:00,
2013-04-30 03:01:00,63.3,54.9,29.28,SE,135,22.0,26.0,74,0.00,,,0.00,meteohub,2013-04-30 08:01:00,
2013-04-30 03:06:00,63.1,54.7,29.27,South,180,22.0,25.0,74,0.00,,,0.00,meteohub,2013-04-30 08:06:00,
2013-04-30 03:11:00,63.1,54.7,29.27,SE,135,21.0,25.0,74,0.00,,,0.00,meteohub,2013-04-30 08:11:00,
2013-04-30 03:16:00,63.1,54.7,29.26,SE,135,23.0,25.0,74,0.00,,,0.00,meteohub,2013-04-30 08:16:00,
2013-04-30 03:21:00,63.1,55.0,29.26,SSE,158,21.0,26.0,75,0.00,,,0.00,meteohub,2013-04-30 08:21:00,
2013-04-30 03:26:00,63.1,55.0,29.26,SE,135,24.0,27.0,75,0.00,,,0.00,meteohub,2013-04-30 08:26:00,
2013-04-30 03:31:00,63.0,54.9,29.26,South,180,22.0,27.0,75,0.00,,,0.00,meteohub,2013-04-30 08:31:00,
2013-04-30 03:36:00,62.8,54.7,29.26,SSE,158,22.0,27.0,75,0.00,,,0.00,meteohub,2013-04-30 08:36:00,
2013-04-30 03:41:00,62.8,55.0,29.26,SE,135,24.0,24.0,76,0.00,,,0.00,meteohub,2013-04-30 08:41:00,
2013-04-30 03:46:00,62.8,55.0,29.25,South,180,22.0,24.0,76,0.00,,,0.00,meteohub,2013-04-30 08:46:00,
2013-04-30 03:51:00,62.8,55.0,29.25,SSE,158,27.0,27.0,76,0.00,,,0.00,meteohub,2013-04-30 08:51:00,
2013-04-30 03:56:00,63.0,55.2,29.25,SE,135,23.0,30.0,76,0.00,,,0.00,meteohub,2013-04-30 08:56:00,
2013-04-30 04:01:00,63.0,55.2,29.25,South,180,21.0,30.0,76,0.00,,,0.00,meteohub,2013-04-30 09:01:00,
2013-04-30 04:07:00,62.8,55.0,29.24,SSE,158,24.0,30.0,76,0.00,,,0.00,meteohub,2013-04-30 09:07:00,
2013-04-30 04:12:00,62.8,55.0,29.25,SE,135,25.0,27.0,76,0.00,,,0.00,meteohub,2013-04-30 09:12:00,
2013-04-30 04:17:00,63.0,55.6,29.24,South,180,25.0,25.0,77,0.00,,,0.00,meteohub,2013-04-30 09:17:00,
2013-04-30 04:22:00,63.0,55.6,29.24,South,180,26.0,29.0,77,0.00,,,0.00,meteohub,2013-04-30 09:22:00,
2013-04-30 04:27:00,63.0,55.6,29.24,South,180,28.0,29.0,77,0.00,,,0.00,meteohub,2013-04-30 09:27:00,
2013-04-30 04:32:00,63.0,55.6,29.23,South,180,29.0,30.0,77,0.00,,,0.00,meteohub,2013-04-30 09:32:00,
2013-04-30 04:37:00,63.0,55.9,29.23,SSW,203,26.0,30.0,78,0.00,,,0.00,meteohub,2013-04-30 09:37:00,
2013-04-30 04:42:00,62.8,55.8,29.23,South,180,24.0,30.0,78,0.00,,,0.00,meteohub,2013-04-30 09:42:00,
2013-04-30 04:47:00,62.8,55.8,29.23,South,180,27.0,29.0,78,0.00,,,0.00,meteohub,2013-04-30 09:47:00,
2013-04-30 04:52:00,62.6,55.6,29.23,South,180,24.0,27.0,78,0.00,,,0.00,meteohub,2013-04-30 09:52:00,
2013-04-30 04:57:00,62.6,55.6,29.23,South,180,23.0,27.0,78,0.00,,,0.00,meteohub,2013-04-30 09:57:00,
2013-04-30 05:02:00,62.4,55.8,29.23,South,180,26.0,27.0,79,0.00,,,0.00,meteohub,2013-04-30 10:02:00,
2013-04-30 05:07:00,62.8,55.8,29.23,South,180,22.0,27.0,78,0.00,,,0.00,meteohub,2013-04-30 10:07:00,
2013-04-30 05:12:00,63.1,56.1,29.23,South,180,26.0,27.0,78,0.00,,,0.00,meteohub,2013-04-30 10:12:00,
2013-04-30 05:18:00,63.5,56.1,29.24,SW,225,23.0,28.0,77,0.00,,,0.00,meteohub,2013-04-30 10:18:00,
2013-04-30 05:23:00,63.3,55.6,29.25,South,180,24.0,33.0,76,0.00,,,0.00,meteohub,2013-04-30 10:23:00,
2013-04-30 05:28:00,63.3,55.6,29.25,WSW,248,22.0,33.0,76,0.00,,,0.00,meteohub,2013-04-30 10:28:00,
2013-04-30 05:33:00,63.7,55.9,29.25,South,180,27.0,33.0,76,0.00,,,0.00,meteohub,2013-04-30 10:33:00,
2013-04-30 05:38:00,64.0,55.6,29.25,South,180,27.0,27.0,74,0.00,,,0.00,meteohub,2013-04-30 10:38:00,
2013-04-30 05:43:00,64.0,55.2,29.26,SW,225,28.0,29.0,73,0.00,,,0.00,meteohub,2013-04-30 10:43:00,
2013-04-30 05:48:00,64.2,55.0,29.26,South,180,27.0,30.0,72,0.00,,,0.00,meteohub,2013-04-30 10:48:00,
2013-04-30 05:53:00,64.0,54.9,29.26,South,180,26.0,30.0,72,0.00,,,0.00,meteohub,2013-04-30 10:53:00,
2013-04-30 05:58:00,63.9,54.7,29.27,SW,225,18.0,30.0,72,0.00,,,0.00,meteohub,2013-04-30 10:58:00,
2013-04-30 06:03:00,63.9,54.3,29.27,SW,225,23.0,27.0,71,0.00,,,0.00,meteohub,2013-04-30 11:03:00,
2013-04-30 06:08:00,64.0,54.5,29.28,NW,315,25.0,27.0,71,0.00,,,0.00,meteohub,2013-04-30 11:08:00,
2013-04-30 06:13:00,64.0,54.1,29.28,SW,225,29.0,29.0,70,0.00,,,0.00,meteohub,2013-04-30 11:13:00,
2013-04-30 06:18:00,64.0,53.6,29.28,WNW,293,35.0,35.0,69,0.00,,,0.00,meteohub,2013-04-30 11:18:00,
2013-04-30 06:23:00,64.0,52.5,29.28,West,270,24.0,35.0,66,0.00,,,0.00,meteohub,2013-04-30 11:23:00,
2013-04-30 06:29:00,64.2,51.8,29.29,West,270,27.0,35.0,64,0.00,,,0.00,meteohub,2013-04-30 11:29:00,
2013-04-30 06:34:00,64.0,50.7,29.29,NW,315,28.0,36.0,62,0.00,,,0.00,meteohub,2013-04-30 11:34:00,
2013-04-30 06:39:00,63.9,49.6,29.30,West,270,42.0,42.0,60,0.00,,,0.00,meteohub,2013-04-30 11:39:00,
2013-04-30 06:44:00,63.7,49.1,29.31,West,270,30.0,42.0,59,0.00,,,0.00,meteohub,2013-04-30 11:44:00,
2013-04-30 06:49:00,63.1,48.6,29.31,West,270,21.0,42.0,59,0.00,,,0.00,meteohub,2013-04-30 11:49:00,
2013-04-30 06:54:00,62.8,48.2,29.32,NW,315,25.0,42.0,59,0.00,,,0.00,meteohub,2013-04-30 11:54:00,
2013-04-30 06:59:00,61.9,47.8,29.32,West,270,26.0,36.0,60,0.00,,,0.00,meteohub,2013-04-30 11:59:00,
2013-04-30 07:04:00,61.2,47.7,29.33,West,270,35.0,35.0,61,0.00,,,0.00,meteohub,2013-04-30 12:04:00,
2013-04-30 07:09:00,60.6,47.5,29.34,West,270,36.0,36.0,62,0.00,,,0.00,meteohub,2013-04-30 12:09:00,
2013-04-30 07:15:00,59.7,47.1,29.34,West,270,27.0,36.0,63,0.00,,,0.00,meteohub,2013-04-30 12:15:00,
2013-04-30 07:20:00,57.9,46.2,29.35,West,270,40.0,40.0,65,0.00,,,0.00,meteohub,2013-04-30 12:20:00,
2013-04-30 07:25:00,56.1,45.7,29.35,NW,315,40.0,43.0,68,0.00,,,0.00,meteohub,2013-04-30 12:25:00,
2013-04-30 07:30:00,55.2,46.0,29.35,West,270,34.0,43.0,71,0.00,,,0.00,meteohub,2013-04-30 12:30:00,
2013-04-30 07:35:00,54.3,45.5,29.36,West,270,31.0,40.0,72,0.00,,,0.00,meteohub,2013-04-30 12:35:00,
2013-04-30 07:40:00,54.0,45.9,29.36,West,270,30.0,40.0,74,0.00,,,0.00,meteohub,2013-04-30 12:40:00,
2013-04-30 07:45:00,53.6,45.9,29.38,West,270,27.0,35.0,75,0.00,,,0.00,meteohub,2013-04-30 12:45:00,
2013-04-30 07:51:00,53.6,46.2,29.39,West,270,27.0,32.0,76,0.00,,,0.00,meteohub,2013-04-30 12:51:00,
2013-04-30 07:56:00,53.4,46.4,29.38,West,270,26.0,30.0,77,0.00,,,0.00,meteohub,2013-04-30 12:56:00,
2013-04-30 08:01:00,53.2,46.2,29.39,West,270,28.0,32.0,77,0.00,,,0.00,meteohub,2013-04-30 13:01:00,
2013-04-30 08:06:00,53.4,46.4,29.39,West,270,34.0,34.0,77,0.00,,,0.00,meteohub,2013-04-30 13:06:00,
2013-04-30 08:11:00,53.8,46.4,29.39,NW,315,34.0,34.0,76,0.00,,,0.00,meteohub,2013-04-30 13:11:00,
2013-04-30 08:16:00,53.2,45.9,29.41,West,270,27.0,34.0,76,0.00,,,0.00,meteohub,2013-04-30 13:16:00,
2013-04-30 08:22:00,53.2,46.2,29.40,West,270,29.0,34.0,77,0.00,,,0.00,meteohub,2013-04-30 13:22:00,
2013-04-30 08:27:00,53.1,46.0,29.41,West,270,26.0,34.0,77,0.00,,,0.00,meteohub,2013-04-30 13:27:00,
2013-04-30 08:32:00,53.2,46.6,29.42,West,270,30.0,34.0,78,0.00,,,0.00,meteohub,2013-04-30 13:32:00,
2013-04-30 08:37:00,53.8,46.4,29.43,NW,315,33.0,33.0,76,0.00,,,0.00,meteohub,2013-04-30 13:37:00,
2013-04-30 08:42:00,54.1,46.4,29.43,West,270,27.0,33.0,75,0.00,,,0.00,meteohub,2013-04-30 13:42:00,
2013-04-30 08:47:00,54.0,45.9,29.43,NW,315,33.0,34.0,74,0.00,,,0.00,meteohub,2013-04-30 13:47:00,
2013-04-30 08:52:00,54.1,46.4,29.44,NW,315,34.0,39.0,75,0.00,,,0.00,meteohub,2013-04-30 13:52:00,
2013-04-30 08:58:00,54.5,46.4,29.45,West,270,31.0,39.0,74,0.00,,,0.00,meteohub,2013-04-30 13:58:00,
2013-04-30 09:03:00,54.5,46.0,29.45,NW,315,36.0,40.0,73,0.00,,,0.00,meteohub,2013-04-30 14:03:00,
2013-04-30 09:08:00,54.5,46.0,29.45,West,270,36.0,40.0,73,0.00,,,0.00,meteohub,2013-04-30 14:08:00,
2013-04-30 09:13:00,54.9,46.4,29.45,NW,315,40.0,43.0,73,0.00,,,0.00,meteohub,2013-04-30 14:13:00,
2013-04-30 09:18:00,55.6,47.1,29.45,West,270,32.0,43.0,73,0.00,,,0.00,meteohub,2013-04-30 14:18:00,
2013-04-30 09:23:00,55.8,46.9,29.46,NW,315,32.0,43.0,72,0.00,,,0.00,meteohub,2013-04-30 14:23:00,
2013-04-30 09:28:00,56.5,47.5,29.46,NW,315,36.0,40.0,72,0.00,,,0.00,meteohub,2013-04-30 14:28:00,
2013-04-30 09:33:00,56.7,47.3,29.46,NW,315,39.0,39.0,71,0.00,,,0.00,meteohub,2013-04-30 14:33:00,
2013-04-30 09:38:00,57.0,47.3,29.46,NW,315,36.0,39.0,70,0.00,,,0.00,meteohub,2013-04-30 14:38:00,
2013-04-30 09:43:00,57.0,46.9,29.46,NW,315,36.0,43.0,69,0.00,,,0.00,meteohub,2013-04-30 14:43:00,
2013-04-30 09:48:00,56.7,46.2,29.47,West,270,42.0,43.0,68,0.00,,,0.00,meteohub,2013-04-30 14:48:00,
2013-04-30 09:54:00,57.0,46.9,29.46,NW,315,36.0,43.0,69,0.00,,,0.00,meteohub,2013-04-30 14:54:00,
2013-04-30 09:59:00,57.9,46.9,29.48,NW,315,30.0,43.0,67,0.00,,,0.00,meteohub,2013-04-30 14:59:00,
2013-04-30 10:04:00,58.5,47.1,29.48,West,270,28.0,42.0,66,0.00,,,0.00,meteohub,2013-04-30 15:04:00,
2013-04-30 10:09:00,59.5,47.3,29.49,NW,315,32.0,38.0,64,0.00,,,0.00,meteohub,2013-04-30 15:09:00,
2013-04-30 10:14:00,59.5,46.6,29.48,NW,315,38.0,38.0,62,0.00,,,0.00,meteohub,2013-04-30 15:14:00,
2013-04-30 10:19:00,59.9,46.4,29.49,NW,315,35.0,35.0,61,0.00,,,0.00,meteohub,2013-04-30 15:19:00,
2013-04-30 10:24:00,59.7,45.9,29.49,West,270,35.0,38.0,60,0.00,,,0.00,meteohub,2013-04-30 15:24:00,
2013-04-30 10:30:00,60.3,46.4,29.50,West,270,33.0,38.0,60,0.00,,,0.00,meteohub,2013-04-30 15:30:00,
2013-04-30 10:35:00,59.9,45.1,29.48,NW,315,34.0,37.0,58,0.00,,,0.00,meteohub,2013-04-30 15:35:00,
2013-04-30 10:40:00,60.1,44.8,29.52,NW,315,32.0,36.0,57,0.00,,,0.00,meteohub,2013-04-30 15:40:00,
2013-04-30 10:45:00,59.7,44.1,29.50,West,270,34.0,36.0,56,0.00,,,0.00,meteohub,2013-04-30 15:45:00,
2013-04-30 10:50:00,59.2,43.9,29.50,West,270,34.0,37.0,57,0.00,,,0.00,meteohub,2013-04-30 15:50:00,
2013-04-30 10:55:00,59.2,43.9,29.50,NW,315,24.0,37.0,57,0.00,,,0.00,meteohub,2013-04-30 15:55:00,
2013-04-30 11:00:00,59.7,45.0,29.51,NW,315,36.0,37.0,58,0.00,,,0.00,meteohub,2013-04-30 16:00:00,
2013-04-30 11:05:00,59.7,44.4,29.51,NW,315,29.0,36.0,57,0.00,,,0.00,meteohub,2013-04-30 16:05:00,
2013-04-30 11:10:00,59.9,44.2,29.51,West,270,31.0,36.0,56,0.00,,,0.00,meteohub,2013-04-30 16:10:00,
2013-04-30 11:16:00,60.1,43.9,29.52,West,270,27.0,36.0,55,0.00,,,0.00,meteohub,2013-04-30 16:16:00,
2013-04-30 11:21:00,61.0,43.2,29.53,NW,315,30.0,34.0,52,0.00,,,0.00,meteohub,2013-04-30 16:21:00,
2013-04-30 11:26:00,61.2,43.3,29.54,West,270,30.0,34.0,52,0.00,,,0.00,meteohub,2013-04-30 16:26:00,
2013-04-30 11:31:00,61.3,43.5,29.53,West,270,27.0,34.0,52,0.00,,,0.00,meteohub,2013-04-30 16:31:00,
2013-04-30 11:36:00,61.3,43.0,29.53,West,270,25.0,34.0,51,0.00,,,0.00,meteohub,2013-04-30 16:36:00,
2013-04-30 11:41:00,61.9,43.5,29.55,NW,315,26.0,30.0,51,0.00,,,0.00,meteohub,2013-04-30 16:41:00,
2013-04-30 11:46:00,61.9,43.0,29.56,NW,315,29.0,36.0,50,0.00,,,0.00,meteohub,2013-04-30 16:46:00,
2013-04-30 11:51:00,61.7,42.3,29.55,NW,315,26.0,36.0,49,0.00,,,0.00,meteohub,2013-04-30 16:51:00,
2013-04-30 11:57:00,61.3,42.1,29.54,NW,315,24.0,36.0,49,0.00,,,0.00,meteohub,2013-04-30 16:57:00,
2013-04-30 12:02:00,61.9,43.0,29.54,West,270,28.0,33.0,50,0.00,,,0.00,meteohub,2013-04-30 17:02:00,
2013-04-30 12:07:00,62.2,41.7,29.55,NW,315,29.0,31.0,47,0.00,,,0.00,meteohub,2013-04-30 17:07:00,
2013-04-30 12:12:00,63.0,41.4,29.56,NW,315,30.0,32.0,45,0.00,,,0.00,meteohub,2013-04-30 17:12:00,
2013-04-30 12:17:00,63.1,39.0,29.55,West,270,27.0,32.0,41,0.00,,,0.00,meteohub,2013-04-30 17:17:00,
2013-04-30 12:22:00,63.3,38.7,29.56,NW,315,31.0,34.0,40,0.00,,,0.00,meteohub,2013-04-30 17:22:00,
2013-04-30 12:28:00,63.5,40.6,29.56,NW,315,30.0,34.0,43,0.00,,,0.00,meteohub,2013-04-30 17:28:00,
2013-04-30 12:33:00,63.7,39.6,29.56,NW,315,23.0,33.0,41,0.00,,,0.00,meteohub,2013-04-30 17:33:00,
2013-04-30 12:38:00,64.0,39.9,29.56,NW,315,34.0,34.0,41,0.00,,,0.00,meteohub,2013-04-30 17:38:00,
2013-04-30 12:43:00,63.7,38.3,29.57,NW,315,24.0,34.0,39,0.00,,,0.00,meteohub,2013-04-30 17:43:00,
2013-04-30 12:48:00,63.7,38.3,29.57,NW,315,23.0,34.0,39,0.00,,,0.00,meteohub,2013-04-30 17:48:00,
2013-04-30 12:53:00,63.9,38.5,29.57,NW,315,29.0,34.0,39,0.00,,,0.00,meteohub,2013-04-30 17:53:00,
2013-04-30 12:58:00,63.7,38.3,29.57,NW,315,24.0,33.0,39,0.00,,,0.00,meteohub,2013-04-30 17:58:00,
2013-04-30 13:04:00,64.4,40.1,29.58,NW,315,23.0,30.0,41,0.00,,,0.00,meteohub,2013-04-30 18:04:00,
2013-04-30 13:09:00,64.6,38.5,29.58,West,270,23.0,30.0,38,0.00,,,0.00,meteohub,2013-04-30 18:09:00,
2013-04-30 13:14:00,64.2,38.7,29.58,NW,315,19.0,27.0,39,0.00,,,0.00,meteohub,2013-04-30 18:14:00,
2013-04-30 13:19:00,64.0,37.9,29.59,NW,315,27.0,27.0,38,0.00,,,0.00,meteohub,2013-04-30 18:19:00,
2013-04-30 13:24:00,64.6,37.0,29.59,West,270,21.0,27.0,36,0.00,,,0.00,meteohub,2013-04-30 18:24:00,
2013-04-30 13:29:00,64.9,36.7,29.59,West,270,30.0,30.0,35,0.00,,,0.00,meteohub,2013-04-30 18:29:00,
2013-04-30 13:34:00,64.4,36.1,29.57,NW,315,21.0,30.0,35,0.00,,,0.00,meteohub,2013-04-30 18:34:00,
2013-04-30 13:39:00,64.2,36.0,29.57,NW,315,21.0,30.0,35,0.00,,,0.00,meteohub,2013-04-30 18:39:00,
2013-04-30 13:45:00,64.2,33.8,29.58,NW,315,25.0,30.0,32,0.00,,,0.00,meteohub,2013-04-30 18:45:00,
2013-04-30 13:50:00,63.9,31.8,29.59,West,270,21.0,26.0,30,0.00,,,0.00,meteohub,2013-04-30 18:50:00,
2013-04-30 13:55:00,64.6,33.3,29.60,West,270,21.0,27.0,31,0.00,,,0.00,meteohub,2013-04-30 18:55:00,
2013-04-30 14:00:00,65.1,31.3,29.59,West,270,22.0,32.0,28,0.00,,,0.00,meteohub,2013-04-30 19:00:00,
2013-04-30 14:05:00,65.3,30.4,29.59,NW,315,30.0,32.0,27,0.00,,,0.00,meteohub,2013-04-30 19:05:00,
2013-04-30 14:10:00,65.5,30.6,29.60,West,270,26.0,30.0,27,0.00,,,0.00,meteohub,2013-04-30 19:10:00,
2013-04-30 14:15:00,65.5,28.8,29.59,West,270,20.0,30.0,25,0.00,,,0.00,meteohub,2013-04-30 19:15:00,
2013-04-30 14:20:00,65.8,30.9,29.60,NW,315,21.0,30.0,27,0.00,,,0.00,meteohub,2013-04-30 19:20:00,
2013-04-30 14:26:00,66.6,32.4,29.61,West,270,24.0,28.0,28,0.00,,,0.00,meteohub,2013-04-30 19:26:00,
2013-04-30 14:31:00,66.6,26.6,29.61,NW,315,30.0,30.0,22,0.00,,,0.00,meteohub,2013-04-30 19:31:00,
2013-04-30 14:36:00,64.8,23.9,29.60,West,270,21.0,34.0,21,0.00,,,0.00,meteohub,2013-04-30 19:36:00,
2013-04-30 14:41:00,64.6,24.8,29.62,West,270,24.0,34.0,22,0.00,,,0.00,meteohub,2013-04-30 19:41:00,
2013-04-30 14:47:00,65.5,25.7,29.62,West,270,22.0,34.0,22,0.00,,,0.00,meteohub,2013-04-30 19:47:00,
2013-04-30 14:52:00,65.7,26.8,29.61,NW,315,27.0,28.0,23,0.00,,,0.00,meteohub,2013-04-30 19:52:00,
2013-04-30 14:57:00,65.8,25.9,29.61,West,270,27.0,28.0,22,0.00,,,0.00,meteohub,2013-04-30 19:57:00,
2013-04-30 15:03:00,64.8,26.1,29.62,West,270,25.0,31.0,23,0.00,,,0.00,meteohub,2013-04-30 20:03:00,
2013-04-30 15:08:00,64.2,24.6,29.63,West,270,26.0,31.0,22,0.00,,,0.00,meteohub,2013-04-30 20:08:00,
2013-04-30 15:13:00,63.7,25.2,29.62,NW,315,24.0,31.0,23,0.00,,,0.00,meteohub,2013-04-30 20:13:00,
2013-04-30 15:18:00,63.5,25.0,29.62,NW,315,27.0,30.0,23,0.00,,,0.00,meteohub,2013-04-30 20:18:00,
2013-04-30 15:24:00,63.5,25.0,29.63,West,270,23.0,30.0,23,0.00,,,0.00,meteohub,2013-04-30 20:24:00,
2013-04-30 15:29:00,64.4,27.9,29.62,West,270,20.0,30.0,25,0.00,,,0.00,meteohub,2013-04-30 20:29:00,
2013-04-30 15:34:00,64.6,28.0,29.62,West,270,25.0,30.0,25,0.00,,,0.00,meteohub,2013-04-30 20:34:00,
2013-04-30 15:39:00,64.6,29.8,29.64,West,270,27.0,27.0,27,0.00,,,0.00,meteohub,2013-04-30 20:39:00,
2013-04-30 15:45:00,65.1,29.3,29.65,West,270,29.0,30.0,26,0.00,,,0.00,meteohub,2013-04-30 20:45:00,
2013-04-30 15:50:00,65.3,27.5,29.65,West,270,29.0,30.0,24,0.00,,,0.00,meteohub,2013-04-30 20:50:00,
2013-04-30 15:55:00,64.2,30.4,29.66,NW,315,21.0,30.0,28,0.00,,,0.00,meteohub,2013-04-30 20:55:00,
2013-04-30 16:00:00,64.4,27.9,29.66,West,270,19.0,31.0,25,0.00,,,0.00,meteohub,2013-04-30 21:00:00,
2013-04-30 16:05:00,64.9,28.2,29.66,West,270,15.0,31.0,25,0.00,,,0.00,meteohub,2013-04-30 21:05:00,
2013-04-30 16:10:00,64.8,30.9,29.67,West,270,24.0,24.0,28,0.00,,,0.00,meteohub,2013-04-30 21:10:00,
2013-04-30 16:15:00,64.9,29.3,29.67,West,270,23.0,24.0,26,0.00,,,0.00,meteohub,2013-04-30 21:15:00,
2013-04-30 16:21:00,64.8,28.0,29.68,NW,315,21.0,24.0,25,0.00,,,0.00,meteohub,2013-04-30 21:21:00,
2013-04-30 16:26:00,64.0,29.3,29.68,West,270,21.0,24.0,27,0.00,,,0.00,meteohub,2013-04-30 21:26:00,
2013-04-30 16:31:00,63.7,27.1,29.67,West,270,27.0,27.0,25,0.00,,,0.00,meteohub,2013-04-30 21:31:00,
2013-04-30 16:36:00,63.3,27.0,29.68,West,270,19.0,27.0,25,0.00,,,0.00,meteohub,2013-04-30 21:36:00,
2013-04-30 16:41:00,63.0,28.4,29.69,West,270,16.0,27.0,27,0.00,,,0.00,meteohub,2013-04-30 21:41:00,
2013-04-30 16:46:00,63.1,29.5,29.69,NW,315,15.0,27.0,28,0.00,,,0.00,meteohub,2013-04-30 21:46:00,
2013-04-30 16:51:00,63.0,29.3,29.70,NW,315,20.0,26.0,28,0.00,,,0.00,meteohub,2013-04-30 21:51:00,
2013-04-30 16:56:00,62.8,30.0,29.70,West,270,23.0,23.0,29,0.00,,,0.00,meteohub,2013-04-30 21:56:00,
2013-04-30 17:02:00,62.8,30.0,29.70,West,270,17.0,23.0,29,0.00,,,0.00,meteohub,2013-04-30 22:02:00,
2013-04-30 17:07:00,63.0,30.2,29.70,West,270,17.0,23.0,29,0.00,,,0.00,meteohub,2013-04-30 22:07:00,
2013-04-30 17:12:00,63.1,30.4,29.70,West,270,16.0,23.0,29,0.00,,,0.00,meteohub,2013-04-30 22:12:00,
2013-04-30 17:17:00,63.3,30.6,29.70,West,270,17.0,23.0,29,0.00,,,0.00,meteohub,2013-04-30 22:17:00,
2013-04-30 17:22:00,63.3,30.6,29.70,West,270,17.0,23.0,29,0.00,,,0.00,meteohub,2013-04-30 22:22:00,
2013-04-30 17:27:00,63.0,29.3,29.70,West,270,18.0,22.0,28,0.00,,,0.00,meteohub,2013-04-30 22:27:00,
2013-04-30 17:32:00,63.0,29.3,29.71,West,270,19.0,23.0,28,0.00,,,0.00,meteohub,2013-04-30 22:32:00,
2013-04-30 17:37:00,62.8,28.2,29.71,NW,315,17.0,23.0,27,0.00,,,0.00,meteohub,2013-04-30 22:37:00,
2013-04-30 17:42:00,62.6,29.1,29.71,NW,315,19.0,21.0,28,0.00,,,0.00,meteohub,2013-04-30 22:42:00,
2013-04-30 17:47:00,62.4,30.6,29.71,NW,315,18.0,21.0,30,0.00,,,0.00,meteohub,2013-04-30 22:47:00,
2013-04-30 17:52:00,62.6,30.7,29.72,NW,315,20.0,20.0,30,0.00,,,0.00,meteohub,2013-04-30 22:52:00,
2013-04-30 17:58:00,62.6,30.7,29.72,West,270,17.0,21.0,30,0.00,,,0.00,meteohub,2013-04-30 22:58:00,
2013-04-30 18:03:00,62.4,30.6,29.72,NW,315,21.0,22.0,30,0.00,,,0.00,meteohub,2013-04-30 23:03:00,
2013-04-30 18:08:00,62.2,30.4,29.73,NW,315,19.0,23.0,30,0.00,,,0.00,meteohub,2013-04-30 23:08:00,
2013-04-30 18:13:00,62.2,31.3,29.73,NW,315,24.0,24.0,31,0.00,,,0.00,meteohub,2013-04-30 23:13:00,
2013-04-30 18:18:00,62.1,31.1,29.73,NW,315,23.0,24.0,31,0.00,,,0.00,meteohub,2013-04-30 23:18:00,
2013-04-30 18:23:00,61.9,30.9,29.73,NW,315,21.0,26.0,31,0.00,,,0.00,meteohub,2013-04-30 23:23:00,
2013-04-30 18:28:00,61.7,31.5,29.73,NW,315,17.0,26.0,32,0.00,,,0.00,meteohub,2013-04-30 23:28:00,
2013-04-30 18:33:00,61.7,31.5,29.73,NW,315,16.0,24.0,32,0.00,,,0.00,meteohub,2013-04-30 23:33:00,
2013-04-30 18:38:00,61.7,32.4,29.74,NW,315,21.0,23.0,33,0.00,,,0.00,meteohub,2013-04-30 23:38:00,
2013-04-30 18:44:00,61.7,32.4,29.74,NW,315,25.0,25.0,33,0.00,,,0.00,meteohub,2013-04-30 23:44:00,
2013-04-30 18:49:00,61.3,33.4,29.75,NW,315,24.0,26.0,35,0.00,,,0.00,meteohub,2013-04-30 23:49:00,
2013-04-30 18:54:00,61.2,34.0,29.75,NW,315,23.0,27.0,36,0.00,,,0.00,meteohub,2013-04-30 23:54:00,
2013-04-30 18:59:00,61.0,35.2,29.74,NW,315,22.0,27.0,38,0.00,,,0.00,meteohub,2013-04-30 23:59:00,
2013-04-30 19:04:00,60.6,34.9,29.75,NW,315,24.0,27.0,38,0.00,,,0.00,meteohub,2013-05-01 00:04:00,
2013-04-30 19:09:00,60.6,34.2,29.75,NW,315,23.0,25.0,37,0.00,,,0.00,meteohub,2013-05-01 00:09:00,
2013-04-30 19:14:00,60.3,34.5,29.75,NW,315,27.0,27.0,38,0.00,,,0.00,meteohub,2013-05-01 00:14:00,
2013-04-30 19:19:00,60.1,33.8,29.75,NW,315,18.0,27.0,37,0.00,,,0.00,meteohub,2013-05-01 00:19:00,
2013-04-30 19:24:00,59.9,34.2,29.75,NW,315,26.0,27.0,38,0.00,,,0.00,meteohub,2013-05-01 00:24:00,
2013-04-30 19:29:00,59.9,34.2,29.75,NW,315,24.0,27.0,38,0.00,,,0.00,meteohub,2013-05-01 00:29:00,
2013-04-30 19:34:00,59.9,35.6,29.75,NW,315,19.0,27.0,40,0.00,,,0.00,meteohub,2013-05-01 00:34:00,
2013-04-30 19:39:00,59.5,35.2,29.76,NW,315,20.0,26.0,40,0.00,,,0.00,meteohub,2013-05-01 00:39:00,
2013-04-30 19:45:00,59.5,35.8,29.76,NW,315,21.0,25.0,41,0.00,,,0.00,meteohub,2013-05-01 00:45:00,
2013-04-30 19:50:00,59.4,35.6,29.76,NW,315,21.0,21.0,41,0.00,,,0.00,meteohub,2013-05-01 00:50:00,
2013-04-30 19:55:00,59.0,36.0,29.75,NW,315,17.0,22.0,42,0.00,,,0.00,meteohub,2013-05-01 00:55:00,
2013-04-30 20:00:00,58.8,37.0,29.75,NW,315,17.0,22.0,44,0.00,,,0.00,meteohub,2013-05-01 01:00:00,
2013-04-30 20:05:00,58.6,36.9,29.76,NW,315,21.0,23.0,44,0.00,,,0.00,meteohub,2013-05-01 01:05:00,
2013-04-30 20:10:00,58.5,36.0,29.76,NW,315,23.0,23.0,43,0.00,,,0.00,meteohub,2013-05-01 01:10:00,
2013-04-30 20:15:00,58.3,36.0,29.76,NW,315,20.0,23.0,43,0.00,,,0.00,meteohub,2013-05-01 01:15:00,
2013-04-30 20:20:00,58.1,35.8,29.76,NW,315,20.0,24.0,43,0.00,,,0.00,meteohub,2013-05-01 01:20:00,
2013-04-30 20:25:00,57.9,36.7,29.76,NW,315,17.0,24.0,45,0.00,,,0.00,meteohub,2013-05-01 01:25:00,
2013-04-30 20:31:00,57.7,36.5,29.75,NW,315,17.0,24.0,45,0.00,,,0.00,meteohub,2013-05-01 01:31:00,
2013-04-30 20:36:00,57.7,36.0,29.76,North,0,17.0,21.0,44,0.00,,,0.00,meteohub,2013-05-01 01:36:00,
2013-04-30 20:41:00,57.4,35.6,29.76,NW,315,19.0,19.0,44,0.00,,,0.00,meteohub,2013-05-01 01:41:00,
2013-04-30 20:46:00,57.2,36.0,29.75,NW,315,21.0,22.0,45,0.00,,,0.00,meteohub,2013-05-01 01:46:00,
2013-04-30 20:51:00,57.0,36.5,29.76,NW,315,23.0,23.0,46,0.00,,,0.00,meteohub,2013-05-01 01:51:00,
2013-04-30 20:56:00,56.8,36.9,29.76,NW,315,18.0,23.0,47,0.00,,,0.00,meteohub,2013-05-01 01:56:00,
2013-04-30 21:01:00,56.7,36.7,29.77,NW,315,19.0,23.0,47,0.00,,,0.00,meteohub,2013-05-01 02:01:00,
2013-04-30 21:06:00,56.5,36.5,29.77,NW,315,21.0,23.0,47,0.00,,,0.00,meteohub,2013-05-01 02:06:00,
2013-04-30 21:11:00,56.3,36.3,29.77,NW,315,19.0,21.0,47,0.00,,,0.00,meteohub,2013-05-01 02:11:00,
2013-04-30 21:16:00,56.1,37.2,29.78,NW,315,17.0,24.0,49,0.00,,,0.00,meteohub,2013-05-01 02:16:00,
2013-04-30 21:22:00,55.8,37.4,29.78,NW,315,17.0,24.0,50,0.00,,,0.00,meteohub,2013-05-01 02:22:00,
2013-04-30 21:27:00,55.4,38.1,29.79,NW,315,21.0,23.0,52,0.00,,,0.00,meteohub,2013-05-01 02:27:00,
2013-04-30 21:32:00,55.2,36.9,29.79,NW,315,20.0,23.0,50,0.00,,,0.00,meteohub,2013-05-01 02:32:00,
2013-04-30 21:37:00,55.0,36.7,29.79,WNW,293,21.0,23.0,50,0.00,,,0.00,meteohub,2013-05-01 02:37:00,
2013-04-30 21:42:00,54.9,36.5,29.80,NW,315,24.0,24.0,50,0.00,,,0.00,meteohub,2013-05-01 02:42:00,
2013-04-30 21:48:00,55.2,36.3,29.81,NW,315,30.0,30.0,49,0.00,,,0.00,meteohub,2013-05-01 02:48:00,
2013-04-30 21:53:00,55.2,36.3,29.80,NW,315,29.0,30.0,49,0.00,,,0.00,meteohub,2013-05-01 02:53:00,
2013-04-30 21:58:00,55.0,36.1,29.81,NW,315,26.0,31.0,49,0.00,,,0.00,meteohub,2013-05-01 02:58:00,
2013-04-30 22:03:00,54.7,36.0,29.81,WNW,293,29.0,33.0,49,0.00,,,0.00,meteohub,2013-05-01 03:03:00,
2013-04-30 22:08:00,54.5,36.3,29.82,NW,315,28.0,33.0,50,0.00,,,0.00,meteohub,2013-05-01 03:08:00,
2013-04-30 22:13:00,54.5,35.8,29.81,NW,315,24.0,33.0,49,0.00,,,0.00,meteohub,2013-05-01 03:13:00,
2013-04-30 22:19:00,54.5,35.2,29.81,NW,315,27.0,33.0,48,0.00,,,0.00,meteohub,2013-05-01 03:19:00,
2013-04-30 22:24:00,54.5,35.2,29.82,North,0,27.0,33.0,48,0.00,,,0.00,meteohub,2013-05-01 03:24:00,
2013-04-30 22:29:00,54.5,35.2,29.82,North,0,29.0,33.0,48,0.00,,,0.00,meteohub,2013-05-01 03:29:00,
2013-04-30 22:34:00,54.3,35.6,29.81,NW,315,21.0,32.0,49,0.00,,,0.00,meteohub,2013-05-01 03:34:00,
2013-04-30 22:39:00,53.8,36.1,29.82,NW,315,26.0,32.0,51,0.00,,,0.00,meteohub,2013-05-01 03:39:00,
2013-04-30 22:45:00,53.4,36.7,29.82,North,0,28.0,32.0,53,0.00,,,0.00,meteohub,2013-05-01 03:45:00,
2013-04-30 22:50:00,53.2,36.5,29.83,NW,315,29.0,31.0,53,0.00,,,0.00,meteohub,2013-05-01 03:50:00,
2013-04-30 22:55:00,53.1,36.9,29.83,North,0,30.0,31.0,54,0.00,,,0.00,meteohub,2013-05-01 03:55:00,
2013-04-30 23:00:00,53.1,36.9,29.83,NW,315,24.0,30.0,54,0.00,,,0.00,meteohub,2013-05-01 04:00:00,
2013-04-30 23:01:00,53.1,36.9,29.84,North,0,25.0,30.0,54,0.00,,,0.00,meteohub,2013-05-01 04:01:00,
2013-04-30 23:02:00,53.1,36.9,29.84,North,0,25.0,30.0,54,0.00,,,0.00,meteohub,2013-05-01 04:02:00,
2013-04-30 23:03:00,52.9,36.7,29.83,North,0,30.0,30.0,54,0.00,,,0.00,meteohub,2013-05-01 04:03:00,
2013-04-30 23:04:00,52.9,36.7,29.84,NW,315,29.0,30.0,54,0.00,,,0.00,meteohub,2013-05-01 04:04:00,
2013-04-30 23:09:00,52.7,36.5,29.85,WNW,293,25.0,30.0,54,0.00,,,0.00,meteohub,2013-05-01 04:09:00,
2013-04-30 23:14:00,52.5,36.9,29.85,NW,315,23.0,30.0,55,0.00,,,0.00,meteohub,2013-05-01 04:14:00,
2013-04-30 23:19:00,52.3,37.0,29.85,North,0,27.0,30.0,56,0.00,,,0.00,meteohub,2013-05-01 04:19:00,
2013-04-30 23:24:00,52.0,37.2,29.86,North,0,26.0,30.0,57,0.00,,,0.00,meteohub,2013-05-01 04:24:00,
2013-04-30 23:29:00,52.0,37.2,29.87,North,0,29.0,30.0,57,0.00,,,0.00,meteohub,2013-05-01 04:29:00,
2013-04-30 23:34:00,52.0,37.2,29.86,North,0,32.0,32.0,57,0.00,,,0.00,meteohub,2013-05-01 04:34:00,
2013-04-30 23:40:00,51.8,37.0,29.87,North,0,30.0,32.0,57,0.00,,,0.00,meteohub,2013-05-01 04:40:00,
2013-04-30 23:45:00,51.6,37.4,29.86,NW,315,28.0,34.0,58,0.00,,,0.00,meteohub,2013-05-01 04:45:00,
2013-04-30 23:50:00,51.4,37.6,29.86,North,0,30.0,34.0,59,0.00,,,0.00,meteohub,2013-05-01 04:50:00,
2013-04-30 23:55:00,51.3,37.4,29.86,North,0,31.0,33.0,59,0.00,,,0.00,meteohub,2013-05-01 04:55:00,